Weather History for KCGE - March, 2014

Change the Weather History Date:

Friday, March 7, 2014

  Actual Average (KESN) Record (KESN)
Temperature  
Mean Temperature 37 °F -  
Max Temperature 41 °F 53 °F 74 °F (1961)
Min Temperature 33 °F 33 °F 12 °F (2015)
Degree Days  
Heating Degree Days 28    
Moisture  
Dew Point 31 °F    
Average Humidity 78    
Maximum Humidity 87    
Minimum Humidity 70    
Precipitation  
Precipitation 0.00 in - - ()
Sea Level Pressure  
Sea Level Pressure 30.08 in    
Wind  
Wind Speed 10 mph (NNE)    
Max Wind Speed 16 mph    
Max Gust Speed 23 mph    
Visibility 10 miles    
Events      
Averages and records for this station are not official NWS values.
T = Trace of Precipitation, MM = Missing Value Source: NWS Daily Summary

Daily Weather History Graph

Daily Weather History Graph

Search for Another Location

Airport or City:

Trip Planner

Search our weather history database for the weather conditions in past years. The results will help you decide how hot, cold, wet, or windy it might be!

Date:

Astronomy

Mar. 07, 2014 Rise Set
Actual Time 6:27 AM EST 6:03 PM EST
Civil Twilight 6:01 AM EST 6:29 PM EST
Nautical Twilight 5:30 AM EST 7:00 PM EST
Astronomical Twilight 4:59 AM EST 7:31 PM EST
Moon 10:23 AM EST (3/7) 12:01 AM EST (3/7)
Length of Visible Light 12h 28m
Length of Day
11h 35m
Waxing Crescent, 42% of the Moon is Illuminated
Mar 7
Waxing Crescent
Mar 8
First Quarter
Mar 16
Full
Mar 23
Last Quarter
Mar 30
New

Hourly Weather History & Observations

Time (EST) Temp. Windchill Dew Point Humidity Pressure Visibility Wind Dir Wind Speed Gust Speed Precip Events Conditions
12:01 AM 33.8 °F 27.0 °F 26.6 °F 75% 30.35 in 10.0 mi NE 8.1 mph - N/A   Overcast
12:21 AM 33.8 °F 27.7 °F 26.6 °F 75% 30.34 in 10.0 mi NE 6.9 mph - N/A   Overcast
12:41 AM 33.8 °F 27.0 °F 26.6 °F 75% 30.32 in 10.0 mi NE 8.1 mph - N/A   Overcast
1:01 AM 33.8 °F 26.4 °F 26.6 °F 75% 30.31 in 10.0 mi ENE 9.2 mph - N/A   Mostly Cloudy
1:21 AM 33.8 °F 27.0 °F 26.6 °F 75% 30.29 in 10.0 mi NE 8.1 mph 19.6 mph N/A   Clear
1:41 AM 33.8 °F 25.8 °F 26.6 °F 75% 30.28 in 10.0 mi NE 10.4 mph 17.3 mph N/A   Clear
2:01 AM 33.8 °F 25.8 °F 28.4 °F 81% 30.28 in 10.0 mi NE 10.4 mph - N/A   Scattered Clouds
2:21 AM 33.8 °F 25.8 °F 28.4 °F 81% 30.26 in 10.0 mi NE 10.4 mph - N/A   Mostly Cloudy
2:41 AM 35.6 °F 28.6 °F 30.2 °F 81% 30.26 in 10.0 mi NE 9.2 mph - N/A   Scattered Clouds
3:01 AM 35.6 °F 28.0 °F 30.2 °F 81% 30.24 in 10.0 mi NE 10.4 mph 16.1 mph N/A   Clear
3:21 AM 35.6 °F 27.5 °F 30.2 °F 81% 30.23 in 10.0 mi NE 11.5 mph - N/A   Clear
3:41 AM 35.6 °F 29.2 °F 30.2 °F 81% 30.22 in 10.0 mi NE 8.1 mph - N/A   Clear
4:01 AM 35.6 °F 29.9 °F 30.2 °F 81% 30.22 in 10.0 mi NE 6.9 mph - N/A   Clear
4:21 AM 35.6 °F 28.0 °F 30.2 °F 81% 30.21 in 10.0 mi NE 10.4 mph 16.1 mph N/A   Clear
4:41 AM 35.6 °F 29.2 °F 30.2 °F 81% 30.21 in 10.0 mi NNE 8.1 mph - N/A   Clear
5:01 AM 33.8 °F 27.0 °F 28.4 °F 81% 30.22 in 10.0 mi NNE 8.1 mph - N/A   Clear
5:21 AM 33.8 °F 25.8 °F 28.4 °F 81% 30.21 in 10.0 mi NNE 10.4 mph - N/A   Clear
5:41 AM 33.8 °F 25.8 °F 28.4 °F 81% 30.17 in 10.0 mi NNE 10.4 mph 16.1 mph N/A   Clear
6:01 AM 33.8 °F 26.4 °F 28.4 °F 81% 30.17 in 10.0 mi NE 9.2 mph 16.1 mph N/A   Clear
6:22 AM 35.6 °F 29.9 °F 30.2 °F 81% 30.19 in 10.0 mi NNE 6.9 mph - N/A   Clear
6:42 AM 35.6 °F 29.9 °F 30.2 °F 81% 30.20 in 10.0 mi NNE 6.9 mph - N/A   Clear
7:02 AM 35.6 °F 28.6 °F 30.2 °F 81% 30.19 in 10.0 mi North 9.2 mph - N/A   Clear
7:22 AM 35.6 °F 29.2 °F 30.2 °F 81% 30.19 in 10.0 mi NNE 8.1 mph - N/A   Clear
7:42 AM 35.6 °F 28.6 °F 30.2 °F 81% 30.18 in 10.0 mi NNE 9.2 mph - N/A   Clear
8:02 AM 35.6 °F 27.5 °F 30.2 °F 81% 30.16 in 10.0 mi NNE 11.5 mph 16.1 mph N/A   Clear
8:22 AM 35.6 °F 27.5 °F 30.2 °F 81% 30.15 in 10.0 mi NNE 11.5 mph 17.3 mph N/A   Clear
8:42 AM 35.6 °F 28.6 °F 30.2 °F 81% 30.14 in 10.0 mi NNE 9.2 mph 16.1 mph N/A   Clear
9:02 AM 35.6 °F 28.0 °F 30.2 °F 81% 30.14 in 10.0 mi NNE 10.4 mph - N/A   Clear
9:22 AM 37.4 °F 30.3 °F 32.0 °F 81% 30.12 in 10.0 mi NE 10.4 mph - N/A   Clear
9:42 AM 37.4 °F 30.3 °F 32.0 °F 81% 30.13 in 10.0 mi NE 10.4 mph 18.4 mph N/A   Clear
10:02 AM 37.4 °F 30.3 °F 32.0 °F 81% 30.12 in 10.0 mi NE 10.4 mph 18.4 mph N/A   Clear
10:22 AM 39.2 °F 32.5 °F 32.0 °F 75% 30.12 in 10.0 mi NE 10.4 mph 20.7 mph N/A   Clear
10:42 AM 39.2 °F 32.0 °F 32.0 °F 75% 30.12 in 10.0 mi NNE 11.5 mph 18.4 mph N/A   Scattered Clouds
11:02 AM 39.2 °F 33.0 °F 32.0 °F 75% 30.11 in 10.0 mi NE 9.2 mph 16.1 mph N/A   Scattered Clouds
11:22 AM 39.2 °F 32.0 °F 32.0 °F 75% 30.11 in 10.0 mi NE 11.5 mph 19.6 mph N/A   Mostly Cloudy
11:42 AM 41.0 °F 34.7 °F 32.0 °F 70% 30.10 in 10.0 mi NNE 10.4 mph 18.4 mph N/A   Overcast
12:02 PM 41.0 °F 34.7 °F 32.0 °F 70% 30.07 in 10.0 mi NNE 10.4 mph 16.1 mph N/A   Mostly Cloudy
12:22 PM 41.0 °F 35.2 °F 32.0 °F 70% 30.07 in 10.0 mi NNE 9.2 mph 17.3 mph N/A   Mostly Cloudy
12:42 PM 41.0 °F 34.7 °F 33.8 °F 76% 30.06 in 10.0 mi North 10.4 mph - N/A   Mostly Cloudy
1:02 PM 41.0 °F 34.3 °F 32.0 °F 70% 30.05 in 10.0 mi NNE 11.5 mph 18.4 mph N/A   Overcast
1:22 PM 41.0 °F 33.9 °F 32.0 °F 70% 30.04 in 10.0 mi NNE 12.7 mph 18.4 mph N/A   Mostly Cloudy
1:42 PM 41.0 °F 34.3 °F 32.0 °F 70% 30.03 in 10.0 mi NNE 11.5 mph 20.7 mph N/A   Overcast
2:02 PM 41.0 °F 34.3 °F 32.0 °F 70% 30.02 in 10.0 mi NNE 11.5 mph 18.4 mph N/A   Overcast
2:22 PM 41.0 °F 34.7 °F 32.0 °F 70% 30.01 in 10.0 mi North 10.4 mph 18.4 mph N/A   Overcast
2:43 PM 41.0 °F 34.3 °F 32.0 °F 70% 30.00 in 10.0 mi NNE 11.5 mph 18.4 mph N/A   Overcast
3:03 PM 41.0 °F 32.8 °F 32.0 °F 70% 29.99 in 10.0 mi North 16.1 mph 23.0 mph N/A   Overcast
3:23 PM 41.0 °F 32.8 °F 32.0 °F 70% 29.99 in 10.0 mi NNE 16.1 mph 20.7 mph N/A   Mostly Cloudy
3:43 PM 41.0 °F 33.9 °F 32.0 °F 70% 29.98 in 10.0 mi North 12.7 mph 20.7 mph N/A   Scattered Clouds
4:03 PM 41.0 °F 34.3 °F 32.0 °F 70% 29.98 in 10.0 mi North 11.5 mph 20.7 mph N/A   Scattered Clouds
4:23 PM 41.0 °F 34.7 °F 32.0 °F 70% 29.97 in 10.0 mi North 10.4 mph 18.4 mph N/A   Scattered Clouds
4:43 PM 41.0 °F 34.3 °F 32.0 °F 70% 29.97 in 10.0 mi NNE 11.5 mph 17.3 mph N/A   Mostly Cloudy
5:03 PM 41.0 °F 34.7 °F 32.0 °F 70% 29.97 in 10.0 mi North 10.4 mph 16.1 mph N/A   Mostly Cloudy
5:23 PM 39.2 °F 33.6 °F 32.0 °F 75% 29.96 in 10.0 mi North 8.1 mph - N/A   Mostly Cloudy
5:43 PM 37.4 °F 30.3 °F 32.0 °F 81% 29.96 in 10.0 mi North 10.4 mph - N/A   Scattered Clouds
6:03 PM 37.4 °F 31.4 °F 33.8 °F 87% 29.95 in 10.0 mi North 8.1 mph - N/A   Scattered Clouds
6:23 PM 37.4 °F 30.8 °F 33.8 °F 87% 29.95 in 10.0 mi North 9.2 mph - N/A   Scattered Clouds
6:43 PM 37.4 °F 30.3 °F 32.0 °F 81% 29.95 in 10.0 mi NNE 10.4 mph - N/A   Mostly Cloudy
7:03 PM 37.4 °F 30.8 °F 32.0 °F 81% 29.94 in 10.0 mi NNE 9.2 mph - N/A   Scattered Clouds
7:23 PM 37.4 °F 30.8 °F 32.0 °F 81% 29.94 in 10.0 mi North 9.2 mph - N/A   Overcast
7:43 PM 37.4 °F 30.3 °F 32.0 °F 81% 29.94 in 10.0 mi North 10.4 mph - N/A   Overcast
8:03 PM 37.4 °F 30.8 °F 32.0 °F 81% 29.93 in 10.0 mi North 9.2 mph - N/A   Overcast
8:23 PM 37.4 °F 30.3 °F 32.0 °F 81% 29.92 in 10.0 mi North 10.4 mph 16.1 mph N/A   Overcast
8:42 PM 37.4 °F 30.3 °F 32.0 °F 81% 29.92 in 10.0 mi North 10.4 mph 16.1 mph N/A   Overcast
9:03 PM 37.4 °F 29.8 °F 32.0 °F 81% 29.92 in 10.0 mi North 11.5 mph 18.4 mph N/A   Overcast
9:23 PM 37.4 °F 29.3 °F 32.0 °F 81% 29.91 in 10.0 mi North 12.7 mph - N/A   Overcast
9:43 PM 37.4 °F 29.8 °F 32.0 °F 81% 29.91 in 10.0 mi North 11.5 mph - N/A   Overcast
10:03 PM 37.4 °F 29.3 °F 32.0 °F 81% 29.90 in 10.0 mi North 12.7 mph 18.4 mph N/A   Overcast
10:23 PM 37.4 °F 30.3 °F 32.0 °F 81% 29.91 in 10.0 mi North 10.4 mph - N/A   Overcast
10:43 PM 37.4 °F 29.8 °F 30.2 °F 75% 29.90 in 10.0 mi North 11.5 mph 16.1 mph N/A   Overcast
11:03 PM 37.4 °F 30.3 °F 32.0 °F 81% 29.89 in 10.0 mi North 10.4 mph 17.3 mph N/A   Overcast
11:24 PM 37.4 °F 29.3 °F 32.0 °F 81% 29.89 in 10.0 mi North 12.7 mph - N/A   Overcast
11:44 PM 37.4 °F 29.8 °F 32.0 °F 81% 29.89 in 10.0 mi North 11.5 mph 18.4 mph N/A   Overcast